Torna al catalogo

STARLINK-3621

AttivoComunicazioniVLEO
NORAD 51769·PAYLOAD·🇺🇸 United States

Lanciato Feb 25, 2022 da Vandenberg Space Force Base

Loading…

Prossimi Passaggi (prossime 24 ore)

TLE

AggiornatoSource: CelesTrak SupGP

Epoca: Sep 14, 2026, 20:52 UTC

1 51769C 22017B   26257.86993056  .00019770  00000+0  11721-2 0  2572
2 51769  53.2154 208.6792 0001599  79.2474 214.9781 15.10866410    16

Traccia STARLINK-3621 in tempo reale con AllMySat

Download on the App Store